Weather History for Homer, AK

Change the Weather History Date:

Wednesday, February 19, 2014

  Actual Average Record
Temperature  
Mean Temperature 23 °F -  
Max Temperature 25 °F 30 °F 51 °F (1934)
Min Temperature 21 °F 18 °F -6 °F (1974)
Degree Days  
Heating Degree Days 42    
Moisture  
Dew Point 14 °F    
Average Humidity 65    
Maximum Humidity 74    
Minimum Humidity 54    
Precipitation  
Precipitation 0.00 in - - ()
Sea Level Pressure  
Sea Level Pressure 29.58 in    
Wind  
Wind Speed 9 mph (SW)    
Max Wind Speed 18 mph    
Max Gust Speed 23 mph    
Visibility 9 miles    
Events Snow    
Averages and records for this station are not official NWS values.
T = Trace of Precipitation, MM = Missing Value Source: NWS Daily Summary

Daily Weather History Graph

Daily Weather History Graph

Search for Another Location

Airport:

Trip Planner

Search our weather history database for the weather conditions in past years. The results will help you decide how hot, cold, wet, or windy it might be!

Date:

Astronomy

Feb. 19, 2014 Rise Set
Actual Time 8:31 AM AKST 6:09 PM AKST
Civil Twilight 7:48 AM AKST 6:52 PM AKST
Nautical Twilight 7:00 AM AKST 7:40 PM AKST
Astronomical Twilight 6:13 AM AKST 8:27 PM AKST
Moon No Moon Rise 9:27 AM AKST (2/19)
Length of Visible Light 11h 03m
Length of Day
9h 38m
Waning Gibbous, 78% of the Moon is Illuminated
Feb 19
Waning Gibbous
Feb 22
Last Quarter
Feb 28
New
Mar 8
First Quarter
Mar 16
Full

Hourly Weather History & Observations

Time (AKST) Temp. Windchill Dew Point Humidity Pressure Visibility Wind Dir Wind Speed Gust Speed Precip Events Conditions
12:17 AM 24.8 °F 16.1 °F 14.0 °F 64% 29.38 in 10.0 mi WSW 8.1 mph - N/A   Overcast
12:53 AM 23.0 °F 13.1 °F 14.0 °F 68% 29.39 in 10.0 mi WSW 9.2 mph - N/A   Overcast
1:53 AM 23.0 °F 12.4 °F 14.0 °F 68% 29.41 in 10.0 mi WSW 10.4 mph - N/A   Overcast
2:20 AM 24.8 °F 15.3 °F 14.0 °F 64% 29.40 in 10.0 mi WSW 9.2 mph - N/A   Overcast
2:50 AM 23.0 °F 13.9 °F 14.0 °F 68% 29.41 in 10.0 mi WSW 8.1 mph - N/A   Overcast
3:53 AM 23.0 °F 13.9 °F 12.9 °F 65% 29.43 in 10.0 mi West 8.1 mph - N/A   Mostly Cloudy
4:25 AM 21.2 °F - 12.2 °F 68% 29.43 in 10.0 mi Calm Calm - N/A   Mostly Cloudy
4:53 AM 23.0 °F 18.4 °F 14.0 °F 68% 29.43 in 10.0 mi SW 3.5 mph - N/A   Overcast
5:53 AM 24.1 °F 18.2 °F 14.0 °F 65% 29.44 in 10.0 mi SW 4.6 mph - N/A   Overcast
6:53 AM 24.1 °F 18.2 °F 14.0 °F 65% 29.46 in 10.0 mi SW 4.6 mph - N/A   Overcast
7:38 AM 24.8 °F - 12.2 °F 59% 29.46 in 10.0 mi Calm Calm - N/A   Scattered Clouds
7:53 AM 21.0 °F - 12.0 °F 68% 29.47 in 10.0 mi Calm Calm - N/A   Mostly Cloudy
8:53 AM 25.0 °F 18.1 °F 16.0 °F 69% 29.50 in 7.0 mi South 5.8 mph - 0.00 in Snow Light Snow
9:53 AM 25.0 °F 14.2 °F 16.0 °F 69% 29.51 in 9.0 mi SW 11.5 mph - 0.00 in Snow Light Snow
10:53 AM 25.0 °F 13.1 °F 17.1 °F 72% 29.54 in 7.0 mi SSW 13.8 mph - 0.00 in Snow Light Snow
11:05 AM 24.8 °F 12.9 °F 17.6 °F 74% 29.53 in 9.0 mi SW 13.8 mph - 0.00 in   Overcast
11:53 AM 25.0 °F 13.1 °F 17.1 °F 72% 29.55 in 7.0 mi SSW 13.8 mph - 0.00 in Snow Light Snow
12:51 PM 24.8 °F 11.9 °F 15.8 °F 69% 29.57 in 5.0 mi SW 16.1 mph 23.0 mph 0.00 in Snow Light Snow
12:53 PM 25.0 °F 12.6 °F 16.0 °F 69% 29.57 in 5.0 mi SW 15.0 mph 23.0 mph 0.00 in Snow Light Snow
1:53 PM 24.1 °F 11.0 °F 15.1 °F 69% 29.60 in 10.0 mi SW 16.1 mph - 0.00 in   Overcast
2:31 PM 24.8 °F 11.9 °F 15.8 °F 69% 29.61 in 10.0 mi SW 16.1 mph - N/A   Overcast
2:53 PM 24.1 °F 12.0 °F 15.1 °F 69% 29.62 in 8.0 mi SW 13.8 mph - 0.00 in Snow Light Snow
3:53 PM 24.1 °F 12.0 °F 14.0 °F 65% 29.63 in 8.0 mi SW 13.8 mph - 0.00 in Snow Light Snow
4:53 PM 25.0 °F 15.5 °F 15.1 °F 66% 29.65 in 10.0 mi WSW 9.2 mph - 0.00 in   Overcast
5:53 PM 25.0 °F 15.5 °F 14.0 °F 63% 29.66 in 10.0 mi SW 9.2 mph - N/A   Overcast
6:53 PM 25.0 °F 13.6 °F 12.9 °F 60% 29.68 in 10.0 mi SW 12.7 mph - N/A   Overcast
7:53 PM 24.1 °F 12.5 °F 12.0 °F 60% 29.70 in 10.0 mi SW 12.7 mph - N/A   Overcast
8:53 PM 24.1 °F 14.4 °F 12.0 °F 60% 29.72 in 10.0 mi WSW 9.2 mph - N/A   Overcast
9:43 PM 24.8 °F 16.9 °F 10.4 °F 54% 29.73 in 10.0 mi WSW 6.9 mph - N/A   Mostly Cloudy
9:53 PM 24.1 °F 13.7 °F 10.9 °F 57% 29.73 in 10.0 mi WSW 10.4 mph - N/A   Mostly Cloudy
10:17 PM 23.0 °F 11.7 °F 10.4 °F 59% 29.74 in 10.0 mi WSW 11.5 mph - N/A   Scattered Clouds
10:53 PM 23.0 °F 11.1 °F 10.9 °F 60% 29.75 in 10.0 mi WSW 12.7 mph 19.6 mph N/A   Overcast
11:25 PM 23.0 °F 10.1 °F 10.4 °F 59% 29.76 in 10.0 mi WSW 15.0 mph - N/A   Overcast
11:39 PM 21.2 °F 6.4 °F 10.4 °F 63% 29.77 in 10.0 mi WSW 18.4 mph 23.0 mph N/A   Overcast
11:46 PM 21.2 °F 8.3 °F 10.4 °F 63% 29.78 in 10.0 mi WSW 13.8 mph 23.0 mph N/A   Overcast
11:53 PM 21.9 °F 8.7 °F 10.9 °F 63% 29.78 in 10.0 mi WSW 15.0 mph 20.7 mph N/A   Overcast